UPCS205 UAAA-UAAA

Flight info

Callsign UPCS205
Flight time 0h 52m
Altitude 5200
Route RA/A052
Aircraft C414/L-S/N

Departure

Time 2026-04-28 14:54
Airport Almaty International Airport (UAAA)

Arrival

Time 2026-04-28 15:46
Airport Almaty International Airport (UAAA)
Time Latitude Longitude Altitude Speed Heading
2026-04-28 14:44 43.34273 77.01413 2219 ft 0 kts 246°
2026-04-28 14:51 43.34273 77.01412 2219 ft 1 kts 246°
2026-04-28 14:51 43.34251 77.01388 2219 ft 7 kts 156°
2026-04-28 14:51 43.34258 77.01476 2221 ft 15 kts 66°
2026-04-28 14:52 43.34286 77.01562 2221 ft 4 kts 65°
2026-04-28 14:52 43.34299 77.01642 2222 ft 9 kts 130°
2026-04-28 14:52 43.34255 77.01671 2222 ft 0 kts 157°
2026-04-28 14:53 43.34231 77.01685 2224 ft 14 kts 156°
2026-04-28 14:53 43.34142 77.01756 2226 ft 11 kts 102°
2026-04-28 14:53 43.34156 77.01794 2225 ft 0 kts 56°
2026-04-28 14:53 43.34220 77.01925 2227 ft 46 kts 56°
2026-04-28 14:54 43.34511 77.02514 2237 ft 98 kts 56°
2026-04-28 14:54 43.34938 77.03388 2439 ft 119 kts 58°
2026-04-28 14:54 43.35435 77.04385 2683 ft 133 kts 56°
2026-04-28 14:54 43.35984 77.05450 2932 ft 140 kts 55°
2026-04-28 14:55 43.36555 77.06566 3194 ft 147 kts 56°
2026-04-28 14:55 43.37142 77.07743 3450 ft 152 kts 56°
2026-04-28 14:55 43.37742 77.08961 3707 ft 156 kts 56°
2026-04-28 14:55 43.38350 77.10205 4002 ft 156 kts 56°
2026-04-28 14:56 43.38950 77.11447 4304 ft 156 kts 56°
2026-04-28 14:56 43.39543 77.12692 4600 ft 155 kts 56°
2026-04-28 14:56 43.40130 77.13932 4901 ft 155 kts 56°
2026-04-28 14:56 43.40719 77.15170 5191 ft 155 kts 56°
2026-04-28 14:57 43.41306 77.16403 5485 ft 154 kts 56°
2026-04-28 14:57 43.41699 77.17221 5682 ft 154 kts 56°
2026-04-28 14:57 43.42501 77.18836 6078 ft 154 kts 55°
2026-04-28 14:57 43.43106 77.20043 6375 ft 154 kts 55°
2026-04-28 14:58 43.43714 77.21248 6674 ft 152 kts 55°
2026-04-28 14:58 43.44302 77.22425 7027 ft 148 kts 56°
2026-04-28 14:58 43.44872 77.23590 7377 ft 146 kts 56°
2026-04-28 14:58 43.45434 77.24739 7706 ft 146 kts 56°
2026-04-28 14:59 43.45999 77.25902 8020 ft 147 kts 56°
2026-04-28 14:59 43.46565 77.27074 8338 ft 148 kts 56°
2026-04-28 14:59 43.47136 77.28255 8661 ft 149 kts 56°
2026-04-28 14:59 43.47707 77.29445 8987 ft 150 kts 56°
2026-04-28 15:00 43.48283 77.30643 9317 ft 150 kts 56°
2026-04-28 15:00 43.48858 77.31845 9653 ft 151 kts 56°
2026-04-28 15:00 43.49437 77.33056 9982 ft 153 kts 56°
2026-04-28 15:00 43.50065 77.34333 10012 ft 169 kts 53°
2026-04-28 15:01 43.51036 77.35244 10018 ft 176 kts 14°
2026-04-28 15:01 43.52258 77.35606 10018 ft 184 kts 11°
2026-04-28 15:01 43.53524 77.35980 10011 ft 189 kts 11°
2026-04-28 15:01 43.54824 77.36365 10011 ft 192 kts 11°
2026-04-28 15:02 43.56082 77.36956 10009 ft 195 kts 34°
2026-04-28 15:02 43.56852 77.38467 10010 ft 198 kts 75°
2026-04-28 15:02 43.56761 77.40333 10008 ft 200 kts 114°
2026-04-28 15:02 43.55846 77.41716 10008 ft 199 kts 153°
2026-04-28 15:03 43.54518 77.42035 10010 ft 196 kts 186°
2026-04-28 15:03 43.53207 77.41563 10010 ft 195 kts 207°
2026-04-28 15:03 43.52223 77.40328 10018 ft 193 kts 234°
2026-04-28 15:03 43.51464 77.38799 10018 ft 194 kts 237°
2026-04-28 15:04 43.50717 77.37259 10020 ft 194 kts 237°
2026-04-28 15:04 43.49969 77.35713 10019 ft 195 kts 237°
2026-04-28 15:04 43.49222 77.34164 10017 ft 195 kts 237°
2026-04-28 15:04 43.48473 77.32609 10017 ft 195 kts 237°
2026-04-28 15:05 43.47726 77.31059 10016 ft 195 kts 237°
2026-04-28 15:05 43.46977 77.29507 10013 ft 195 kts 237°
2026-04-28 15:05 43.46229 77.27957 10012 ft 195 kts 237°
2026-04-28 15:05 43.45480 77.26406 10012 ft 195 kts 237°
2026-04-28 15:06 43.44731 77.24853 10012 ft 195 kts 238°
2026-04-28 15:06 43.44000 77.23286 10011 ft 195 kts 238°
2026-04-28 15:06 43.43273 77.21715 10009 ft 195 kts 238°
2026-04-28 15:06 43.42548 77.20137 10011 ft 196 kts 238°
2026-04-28 15:07 43.41824 77.18562 10013 ft 195 kts 238°
2026-04-28 15:07 43.41104 77.17005 10010 ft 193 kts 238°
2026-04-28 15:07 43.40389 77.15455 10007 ft 192 kts 238°
2026-04-28 15:07 43.39678 77.13916 10005 ft 191 kts 238°
2026-04-28 15:08 43.38993 77.12359 10000 ft 190 kts 241°
2026-04-28 15:08 43.38367 77.10760 9999 ft 190 kts 242°
2026-04-28 15:08 43.37722 77.09175 9999 ft 190 kts 241°
2026-04-28 15:08 43.37146 77.07557 9998 ft 189 kts 253°
2026-04-28 15:09 43.36859 77.05799 10003 ft 189 kts 259°
2026-04-28 15:09 43.36622 77.04008 9771 ft 190 kts 260°
2026-04-28 15:09 43.36393 77.02250 9506 ft 185 kts 260°
2026-04-28 15:09 43.36240 77.01097 9334 ft 183 kts 259°
2026-04-28 15:10 43.35893 76.98838 8985 ft 181 kts 258°
2026-04-28 15:10 43.35628 76.97160 8722 ft 180 kts 258°
2026-04-28 15:10 43.35361 76.95476 8408 ft 183 kts 258°
2026-04-28 15:10 43.35090 76.93760 8044 ft 186 kts 259°
2026-04-28 15:11 43.34832 76.92011 7679 ft 188 kts 259°
2026-04-28 15:11 43.34573 76.90251 7348 ft 189 kts 259°
2026-04-28 15:11 43.34310 76.88485 6990 ft 190 kts 259°
2026-04-28 15:11 43.34043 76.86711 6628 ft 190 kts 259°
2026-04-28 15:12 43.33781 76.84935 6264 ft 191 kts 259°
2026-04-28 15:12 43.33524 76.83153 5891 ft 190 kts 259°
2026-04-28 15:12 43.33267 76.81377 5522 ft 190 kts 259°
2026-04-28 15:12 43.33007 76.79607 5226 ft 186 kts 259°
2026-04-28 15:13 43.32515 76.78094 5205 ft 169 kts 224°
2026-04-28 15:13 43.31481 76.77508 5207 ft 165 kts 181°
2026-04-28 15:13 43.30390 76.77945 5209 ft 168 kts 141°
2026-04-28 15:13 43.29554 76.79063 5235 ft 170 kts 137°
2026-04-28 15:14 43.28551 76.79934 5246 ft 173 kts 152°
2026-04-28 15:14 43.27447 76.80621 5245 ft 176 kts 155°
2026-04-28 15:14 43.26317 76.81299 5249 ft 178 kts 156°
2026-04-28 15:14 43.25187 76.81993 5245 ft 178 kts 155°
2026-04-28 15:15 43.24247 76.83032 5235 ft 177 kts 120°
2026-04-28 15:15 43.24028 76.84105 5231 ft 177 kts 90°
2026-04-28 15:15 43.24738 76.86047 4977 ft 177 kts 36°
2026-04-28 15:15 43.25847 76.86714 4753 ft 172 kts 25°
2026-04-28 15:16 43.26850 76.87531 4636 ft 165 kts 37°
2026-04-28 15:16 43.27628 76.88641 4545 ft 160 kts 53°
2026-04-28 15:16 43.28279 76.89863 4390 ft 159 kts 54°
2026-04-28 15:16 43.28917 76.91122 4143 ft 165 kts 55°
2026-04-28 15:17 43.29551 76.92400 3819 ft 152 kts 56°
2026-04-28 15:17 43.30112 76.93538 3488 ft 136 kts 56°
2026-04-28 15:17 43.30591 76.94509 3356 ft 112 kts 56°
2026-04-28 15:17 43.31007 76.95348 3275 ft 104 kts 56°
2026-04-28 15:18 43.31405 76.96154 3222 ft 101 kts 56°
2026-04-28 15:18 43.31805 76.96969 3126 ft 101 kts 56°
2026-04-28 15:18 43.32192 76.97755 3067 ft 100 kts 57°
2026-04-28 15:18 43.32579 76.98572 2933 ft 103 kts 57°
2026-04-28 15:19 43.32969 76.99394 2730 ft 103 kts 57°
2026-04-28 15:19 43.33360 77.00192 2592 ft 100 kts 56°
2026-04-28 15:19 43.33761 77.00987 2397 ft 102 kts 58°
2026-04-28 15:19 43.34150 77.01782 2247 ft 98 kts 58°
2026-04-28 15:20 43.34474 77.02447 2230 ft 73 kts 53°
2026-04-28 15:20 43.34844 77.03175 2276 ft 111 kts 57°
2026-04-28 15:20 43.35306 77.04109 2582 ft 125 kts 56°
2026-04-28 15:20 43.35818 77.05135 2916 ft 135 kts 56°
2026-04-28 15:21 43.36368 77.06234 3235 ft 145 kts 56°
2026-04-28 15:21 43.36930 77.07421 3533 ft 152 kts 57°
2026-04-28 15:21 43.37512 77.08665 3826 ft 157 kts 57°
2026-04-28 15:21 43.38106 77.09949 4115 ft 161 kts 57°
2026-04-28 15:22 43.38705 77.11254 4398 ft 164 kts 57°
2026-04-28 15:22 43.39314 77.12587 4678 ft 165 kts 57°
2026-04-28 15:22 43.39927 77.13920 4956 ft 163 kts 56°
2026-04-28 15:22 43.40524 77.15197 5218 ft 155 kts 56°
2026-04-28 15:23 43.41095 77.16408 5528 ft 147 kts 55°
2026-04-28 15:23 43.41658 77.17550 5825 ft 142 kts 55°
2026-04-28 15:23 43.42208 77.18655 6135 ft 139 kts 55°
2026-04-28 15:23 43.42747 77.19736 6446 ft 136 kts 55°
2026-04-28 15:24 43.43280 77.20794 6747 ft 133 kts 55°
2026-04-28 15:24 43.43797 77.21837 7044 ft 131 kts 56°
2026-04-28 15:24 43.44299 77.22872 7343 ft 129 kts 56°
2026-04-28 15:24 43.44795 77.23893 7647 ft 128 kts 56°
2026-04-28 15:25 43.45283 77.24905 7947 ft 126 kts 56°
2026-04-28 15:25 43.45764 77.25907 8258 ft 125 kts 56°
2026-04-28 15:25 43.46236 77.26894 8566 ft 123 kts 55°
2026-04-28 15:25 43.46701 77.27869 8883 ft 121 kts 55°
2026-04-28 15:26 43.47165 77.28823 9202 ft 121 kts 55°
2026-04-28 15:26 43.47647 77.29813 9488 ft 129 kts 55°
2026-04-28 15:26 43.48157 77.30861 9790 ft 135 kts 55°
2026-04-28 15:26 43.48698 77.31965 10017 ft 148 kts 53°
2026-04-28 15:27 43.49584 77.32785 10041 ft 167 kts 13°
2026-04-28 15:27 43.50779 77.33138 10038 ft 184 kts 10°
2026-04-28 15:27 43.52060 77.33506 10032 ft 192 kts 10°
2026-04-28 15:27 43.53375 77.33877 10018 ft 195 kts 10°
2026-04-28 15:28 43.54674 77.34420 10012 ft 198 kts 30°
2026-04-28 15:28 43.55532 77.35877 10010 ft 202 kts 70°
2026-04-28 15:28 43.55555 77.37782 10009 ft 204 kts 108°
2026-04-28 15:28 43.54727 77.39320 10005 ft 203 kts 146°
2026-04-28 15:29 43.53398 77.39849 10005 ft 201 kts 182°
2026-04-28 15:29 43.52056 77.39425 10016 ft 199 kts 210°
2026-04-28 15:29 43.51086 77.38109 10019 ft 197 kts 234°
2026-04-28 15:29 43.50309 77.36557 10024 ft 197 kts 238°
2026-04-28 15:30 43.49562 77.34984 10026 ft 197 kts 237°
2026-04-28 15:30 43.48804 77.33412 10026 ft 197 kts 237°
2026-04-28 15:30 43.48046 77.31839 10028 ft 197 kts 237°
2026-04-28 15:30 43.47290 77.30267 10029 ft 198 kts 237°
2026-04-28 15:31 43.46533 77.28687 10027 ft 198 kts 237°
2026-04-28 15:31 43.45777 77.27114 10027 ft 196 kts 237°
2026-04-28 15:31 43.45280 77.26080 10026 ft 194 kts 237°
2026-04-28 15:31 43.44297 77.24022 10023 ft 192 kts 237°
2026-04-28 15:32 43.43569 77.22491 10020 ft 192 kts 238°
2026-04-28 15:32 43.43106 77.21449 10021 ft 192 kts 239°
2026-04-28 15:32 43.42211 77.19340 10021 ft 192 kts 240°
2026-04-28 15:32 43.41543 77.17761 10020 ft 192 kts 240°
2026-04-28 15:33 43.40874 77.16177 10022 ft 192 kts 239°
2026-04-28 15:33 43.40177 77.14622 10023 ft 192 kts 238°
2026-04-28 15:33 43.39471 77.13070 10019 ft 192 kts 238°
2026-04-28 15:33 43.38765 77.11524 10020 ft 192 kts 238°
2026-04-28 15:34 43.38060 77.09975 10019 ft 192 kts 238°
2026-04-28 15:34 43.37373 77.08405 10018 ft 191 kts 241°
2026-04-28 15:34 43.36965 77.06681 10010 ft 191 kts 258°
2026-04-28 15:34 43.36703 77.04878 9634 ft 192 kts 259°
2026-04-28 15:35 43.36435 77.03087 9251 ft 191 kts 258°
2026-04-28 15:35 43.35888 76.99531 8492 ft 190 kts 258°
2026-04-28 15:35 43.35613 76.97760 8120 ft 190 kts 258°
2026-04-28 15:36 43.35339 76.95993 7753 ft 190 kts 258°
2026-04-28 15:36 43.35063 76.94228 7390 ft 190 kts 258°
2026-04-28 15:36 43.34785 76.92458 7046 ft 189 kts 258°
2026-04-28 15:36 43.34510 76.90717 6812 ft 184 kts 258°
2026-04-28 15:37 43.34242 76.89024 6592 ft 180 kts 258°
2026-04-28 15:37 43.33984 76.87368 6430 ft 174 kts 258°
2026-04-28 15:37 43.33735 76.85769 6296 ft 170 kts 258°
2026-04-28 15:37 43.33576 76.84720 6207 ft 168 kts 258°
2026-04-28 15:38 43.33255 76.82602 5887 ft 172 kts 258°
2026-04-28 15:38 43.33008 76.80984 5640 ft 174 kts 258°
2026-04-28 15:38 43.32841 76.79897 5479 ft 175 kts 258°
2026-04-28 15:38 43.32314 76.77827 5223 ft 171 kts 236°
2026-04-28 15:39 43.31552 76.76673 5218 ft 159 kts 219°
2026-04-28 15:39 43.30645 76.75875 5209 ft 152 kts 202°
2026-04-28 15:39 43.29640 76.75648 5221 ft 145 kts 174°
2026-04-28 15:39 43.28695 76.76005 5222 ft 140 kts 149°
2026-04-28 15:40 43.27944 76.76811 5223 ft 137 kts 133°
2026-04-28 15:40 43.27278 76.77732 5222 ft 135 kts 132°
2026-04-28 15:40 43.26940 76.78867 5228 ft 131 kts 96°
2026-04-28 15:40 43.26828 76.79686 5229 ft 131 kts 100°
2026-04-28 15:41 43.26593 76.81332 5227 ft 131 kts 99°
2026-04-28 15:41 43.26422 76.82548 5223 ft 129 kts 100°
2026-04-28 15:41 43.26255 76.83743 5214 ft 127 kts 99°
2026-04-28 15:41 43.26235 76.84940 5210 ft 126 kts 82°
2026-04-28 15:42 43.26536 76.86084 5032 ft 129 kts 57°
2026-04-28 15:42 43.26995 76.87125 4782 ft 127 kts 58°
2026-04-28 15:42 43.27469 76.88134 4527 ft 123 kts 56°
2026-04-28 15:42 43.27922 76.89073 4362 ft 115 kts 54°
2026-04-28 15:43 43.28345 76.89937 4295 ft 106 kts 54°
2026-04-28 15:43 43.28767 76.90793 4196 ft 110 kts 54°
2026-04-28 15:43 43.29199 76.91672 4045 ft 113 kts 55°
2026-04-28 15:43 43.29640 76.92571 3856 ft 115 kts 55°
2026-04-28 15:44 43.30099 76.93505 3633 ft 117 kts 55°
2026-04-28 15:44 43.30547 76.94412 3511 ft 113 kts 55°
2026-04-28 15:44 43.30983 76.95297 3382 ft 111 kts 55°
2026-04-28 15:44 43.31409 76.96161 3285 ft 109 kts 55°
2026-04-28 15:45 43.31829 76.97014 3192 ft 107 kts 55°
2026-04-28 15:45 43.32233 76.97835 3151 ft 101 kts 55°
2026-04-28 15:45 43.32623 76.98624 3119 ft 98 kts 56°
2026-04-28 15:45 43.32995 76.99386 2969 ft 99 kts 57°
2026-04-28 15:46 43.33369 77.00216 2707 ft 102 kts 58°
2026-04-28 15:46 43.33762 77.00996 2426 ft 98 kts 55°
2026-04-28 15:46 43.34138 77.01759 2241 ft 93 kts 57°
2026-04-28 15:46 43.34398 77.02285 2228 ft 24 kts 55°
2026-04-28 15:47 43.34481 77.02406 2226 ft 13 kts 333°
2026-04-28 15:47 43.34499 77.02280 2224 ft 16 kts 272°
2026-04-28 15:47 43.34505 77.02126 2223 ft 16 kts 272°
2026-04-28 15:47 43.34509 77.02026 2222 ft 15 kts 272°
2026-04-28 15:48 43.34516 77.01840 2221 ft 14 kts 273°
2026-04-28 15:48 43.34521 77.01716 2221 ft 12 kts 273°
2026-04-28 15:48 43.34524 77.01607 2220 ft 11 kts 273°
2026-04-28 15:48 43.34520 77.01518 2220 ft 8 kts 209°
2026-04-28 15:49 43.34486 77.01529 2220 ft 9 kts 156°
2026-04-28 15:49 43.34392 77.01587 2221 ft 14 kts 156°
2026-04-28 15:49 43.34304 77.01617 2221 ft 12 kts 244°
2026-04-28 15:49 43.34265 77.01496 2221 ft 10 kts 254°
2026-04-28 15:50 43.34282 77.01442 2221 ft 7 kts 246°
2026-04-28 15:50 43.34273 77.01413 2218 ft 0 kts 246°